COSMOS 1275 DEB, 42175

Orbit data source: Space-Track

COSMOS 1275 DEB, 42175 is space debris in LEO originally from a launch on Thu, 04 Jun 1981 UTC launched from the Plesetsk Missile And Space Complex (PKMTR). Debris objects in space refer to the collection of defunct objects orbiting the Earth. Examples of debris include non-operational satellites, rocket bodies, and fragments generated from explosions, collisions, or faulty payload assembly.

Loading next visibility...
Identifier
42175, 1981-053SP
Orbit
LEO
Country
Flag of CISCIS
Related business
Manufacturer
Unknown
Mission
Spacecraft
Bus & Motor
Unknown
Mass
Unknown
Launch date (UTC)
1981-06-04 (45 years ago)
Launch vehicle
Unknown
Launch site
Plesetsk Missile And Space Complex (PKMTR)
Object type
Payload
Rocket body
Debris
Shape & HBR
Unknown shape, 0.1 m
Radar Cross Section
Small (<0.1 m²)

Expand to show TLE details & history
Last TLE update: 2 days ago

TLE from 2 days ago
0 COSMOS 1275 DEB
1 42175U 81053SP  26262.33974624  .00000093  00000-0  11870-3 0  9994
2 42175  83.0276 119.0067 0139268 332.1064 204.0643 13.49764996632007
Epoch: 2026-09-19T08:09Z
TLE epoch observation values (Epoch: 2026-09-19T08:09:14.075Z)
Latitude
4.34965°
Longitude
177.91809°
Altitude
1,170.537 km
Speed
7.222 km/s
True Right ascension
19h 53m 54s
True Declination
4° 19' 30"
Sunlit
Object was in daylight at epoch
Visualization orbit readout
Latitude
Unknown
Longitude
Unknown
Altitude
Unknown
Speed
Unknown
Apparent Right ascension
Unknown
Apparent Declination
Unknown
Sunlit
N/A
Visualization observer readout
Local Sidereal Time
14:02:00
Azimuth
Unknown
Elevation
Unknown
Doppler factor
Unknown
Orbital elements
Apogee altitude
1,174.036 km
Perigee altitude
966.57 km
Semi-major axis
7,448.44 km
Eccentricity
0.01393
Inclination
83.0276°
RAAN
119.0067°
Arg. of periapsis
332.1064°
True anomaly
203.42376°
Mean anomaly
204.0643°
Eccentric anomaly
203.74302°
Mean motion
3.37633 °/min
Orbital period
106.62 mins
BSTAR
0.0001187
Loading maneuver chart data...
Computing Atmospheric mass density...

Documentation

Showing up to 5 results
|